Location: Ash Observatory
(39.7321°N, 75.2004°W)
Time: 23:48:45
(UTC-04:00)

ISS - Pass Details

Date: 22 May 2019
Orbit: 407 x 418 km, 51.6° (Epoch: 20 June)

Event Time Altitude Azimuth Distance (km) Brightness Sun altitude
Rises 21:10:33 0° 262° (W) 2,341 0.8 -9.9°
Reaches altitude 10° 21:12:52 10° 276° (W) 1,484 0.0 -10.2°
Maximum altitude 21:15:42 25° 334° (NNW) 880 -1.3 -10.6°
Drops below altitude 10° 21:18:33 10° 32° (NNE) 1,495 -0.9 -11.1°
Sets 21:20:54 0° 46° (NE) 2,363 0.0 -11.4°
